Weather History for Beaufort, SC

Change the Weather History Date:

Sunday, June 10, 2012

  Actual Average (KNBC) Record (KNBC)
Temperature  
Mean Temperature 78 °F -  
Max Temperature 84 °F 87 °F 99 °F (1941)
Min Temperature 71 °F 68 °F 60 °F (1960)
Cooling Degree Days 14    
Growing Degree Days 28 (Base 50)    
Moisture  
Dew Point 70 °F    
Average Humidity 77    
Maximum Humidity 89    
Minimum Humidity 61    
Precipitation  
Precipitation 0.00 in - - ()
Sea Level Pressure  
Sea Level Pressure 30.09 in    
Wind  
Wind Speed 5 mph (SE)    
Max Wind Speed 10 mph    
Max Gust Speed 16 mph    
Visibility 9 miles    
Events Rain , Thunderstorm    
Averages and records for this station are not official NWS values.
T = Trace of Precipitation, MM = Missing Value Source: NWS Daily Summary

Daily Weather History Graph

Daily Weather History Graph

Search for Another Location

Airport:

Trip Planner

Search our weather history database for the weather conditions in past years. The results will help you decide how hot, cold, wet, or windy it might be!

Date:

Astronomy

Jun. 10, 2012 Rise Set
Actual Time 6:14 AM EDT 8:29 PM EDT
Civil Twilight 5:46 AM EDT 8:57 PM EDT
Nautical Twilight 5:11 AM EDT 9:32 PM EDT
Astronomical Twilight 4:34 AM EDT 10:10 PM EDT
Moon 12:39 AM EDT (6/10) 12:42 PM EDT (6/10)
Length of Visible Light 15h 11m
Length of Day
14h 14m
Waning Gibbous, 58% of the Moon is Illuminated
Jun 10
Waning Gibbous
Jun 11
Last Quarter
Jun 19
New
Jun 26
First Quarter
Jul 3
Full

Hourly Weather History & Observations

Time (EDT) Temp. Heat Index Dew Point Humidity Pressure Visibility Wind Dir Wind Speed Gust Speed Precip Events Conditions
12:15 AM 77.0 °F - 62.6 °F 61% 30.09 in 10.0 mi SE 4.6 mph - N/A   Mostly Cloudy
12:35 AM 77.0 °F - 62.6 °F 61% 30.09 in 10.0 mi SE 4.6 mph - N/A   Mostly Cloudy
12:55 AM 77.0 °F - 62.6 °F 61% 30.08 in 10.0 mi SE 5.8 mph - N/A   Mostly Cloudy
1:15 AM 77.0 °F - 62.6 °F 61% 30.07 in 10.0 mi SE 4.6 mph - N/A   Overcast
1:35 AM 77.0 °F - 62.6 °F 61% 30.06 in 10.0 mi SE 5.8 mph - N/A   Overcast
1:55 AM 77.0 °F - 62.6 °F 61% 30.05 in 10.0 mi SE 4.6 mph - N/A Rain Light Rain
2:15 AM 77.0 °F - 64.4 °F 65% 30.04 in 10.0 mi SE 6.9 mph - N/A   Overcast
2:35 AM 77.0 °F - 64.4 °F 65% 30.03 in 10.0 mi ESE 6.9 mph - N/A   Overcast
2:55 AM 77.0 °F - 64.4 °F 65% 30.01 in 10.0 mi ESE 4.6 mph - N/A   Overcast
3:15 AM 77.0 °F - 66.2 °F 69% 30.03 in 10.0 mi South 6.9 mph - N/A   Overcast
3:35 AM 75.2 °F - 66.2 °F 73% 30.03 in 10.0 mi SSE 5.8 mph - N/A   Overcast
3:55 AM 75.2 °F - 68.0 °F 78% 30.02 in 10.0 mi SE 5.8 mph - N/A   Overcast
4:15 AM 75.2 °F - 68.0 °F 78% 30.04 in 10.0 mi South 5.8 mph - N/A   Overcast
4:35 AM 75.2 °F - 68.0 °F 78% 30.03 in 10.0 mi SE 4.6 mph - N/A   Mostly Cloudy
4:55 AM 73.4 °F - 68.0 °F 83% 30.03 in 10.0 mi ESE 4.6 mph - N/A Rain Light Rain
5:15 AM 73.4 °F - 69.8 °F 88% 30.04 in 10.0 mi SE 4.6 mph - N/A   Mostly Cloudy
5:35 AM 73.4 °F - 69.8 °F 88% 30.05 in 10.0 mi SE 4.6 mph - N/A   Overcast
5:55 AM 73.4 °F - 69.8 °F 88% 30.05 in 10.0 mi SE 3.5 mph - N/A   Mostly Cloudy
6:15 AM 73.4 °F - 69.8 °F 88% 30.06 in 10.0 mi Calm Calm - N/A   Mostly Cloudy
6:35 AM 73.4 °F - 69.8 °F 88% 30.07 in 10.0 mi Calm Calm - N/A   Overcast
6:55 AM 73.4 °F - 69.8 °F 88% 30.08 in 10.0 mi Calm Calm - N/A   Overcast
7:15 AM 73.4 °F - 69.8 °F 88% 30.08 in 10.0 mi SE 3.5 mph - N/A   Overcast
7:35 AM 75.2 °F - 69.8 °F 83% 30.08 in 10.0 mi Calm Calm - N/A   Overcast
7:55 AM 75.2 °F - 69.8 °F 83% 30.08 in 10.0 mi ESE 3.5 mph - N/A   Overcast
8:15 AM 75.2 °F - 71.6 °F 89% 30.09 in 10.0 mi ESE 3.5 mph - N/A   Overcast
8:35 AM 77.0 °F - 71.6 °F 83% 30.09 in 10.0 mi East 3.5 mph - N/A   Overcast
8:55 AM 77.0 °F - 71.6 °F 83% 30.09 in 10.0 mi Calm Calm - N/A   Overcast
9:15 AM 77.0 °F - 71.6 °F 83% 30.10 in 10.0 mi SE 4.6 mph - N/A   Overcast
9:35 AM 78.8 °F - 71.6 °F 78% 30.10 in 10.0 mi SE 3.5 mph - N/A   Overcast
9:55 AM 78.8 °F - 71.6 °F 78% 30.10 in 10.0 mi SE 8.1 mph - N/A   Overcast
10:15 AM 78.8 °F - 69.8 °F 74% 30.10 in 10.0 mi SE 8.1 mph - N/A   Overcast
10:35 AM 78.8 °F - 69.8 °F 74% 30.11 in 10.0 mi SE 9.2 mph - N/A   Overcast
10:55 AM 78.8 °F - 69.8 °F 74% 30.11 in 10.0 mi SSE 4.6 mph - N/A   Overcast
11:15 AM 80.6 °F 84.6 °F 71.6 °F 74% 30.11 in 7.0 mi SE 10.4 mph - N/A   Overcast
11:35 AM 80.6 °F 84.6 °F 71.6 °F 74% 30.11 in 7.0 mi SSE 9.2 mph - N/A   Overcast
11:55 AM 80.6 °F 84.6 °F 71.6 °F 74% 30.10 in 7.0 mi SSE 9.2 mph 16.1 mph N/A   Overcast
12:15 PM 82.4 °F 87.2 °F 71.6 °F 70% 30.10 in 7.0 mi SSE 8.1 mph - N/A   Overcast
12:35 PM 80.6 °F 83.9 °F 69.8 °F 70% 30.10 in 7.0 mi SE 6.9 mph - N/A   Overcast
12:55 PM 82.4 °F 87.2 °F 71.6 °F 70% 30.10 in 7.0 mi SE 8.1 mph - N/A   Overcast
1:15 PM 80.6 °F 84.6 °F 71.6 °F 74% 30.10 in 7.0 mi SSE 4.6 mph 9.2 mph N/A   Overcast
1:35 PM 80.6 °F 84.6 °F 71.6 °F 74% 30.10 in 7.0 mi SE 9.2 mph - N/A   Overcast
1:55 PM 78.8 °F - 68.0 °F 69% 30.10 in 10.0 mi SSE 4.6 mph - N/A Rain Light Rain
2:15 PM 80.6 °F 84.6 °F 71.6 °F 74% 30.09 in 7.0 mi SSE 8.1 mph - N/A Rain Light Rain
2:35 PM 82.4 °F 88.2 °F 73.4 °F 74% 30.09 in 5.0 mi South 4.6 mph - N/A   Haze
2:55 PM 82.4 °F 87.2 °F 71.6 °F 70% 30.08 in 5.0 mi SE 6.9 mph - N/A   Haze
3:15 PM 82.4 °F 87.2 °F 71.6 °F 70% 30.08 in 3.0 mi ESE 5.8 mph - N/A   Haze
3:35 PM 84.2 °F 89.6 °F 71.6 °F 66% 30.07 in 7.0 mi SSE 8.1 mph - N/A   Mostly Cloudy
3:55 PM 82.4 °F 87.2 °F 71.6 °F 70% 30.08 in 7.0 mi SE 4.6 mph - N/A Thunderstorm Mostly Cloudy
4:15 PM 82.4 °F 86.3 °F 69.8 °F 66% 30.08 in 5.0 mi SSE 6.9 mph - N/A   Haze
4:35 PM 80.6 °F 84.6 °F 71.6 °F 74% 30.09 in 7.0 mi SE 6.9 mph - N/A Thunderstorm Mostly Cloudy
4:55 PM 80.6 °F 84.6 °F 71.6 °F 74% 30.09 in 5.0 mi SSE 6.9 mph - N/A   Haze
5:15 PM 80.6 °F 84.6 °F 71.6 °F 74% 30.09 in 4.0 mi SSE 5.8 mph - N/A   Haze
5:35 PM 80.6 °F 84.6 °F 71.6 °F 74% 30.10 in 7.0 mi SSE 8.1 mph - N/A   Overcast
5:55 PM 78.8 °F - 71.6 °F 78% 30.10 in 7.0 mi SSE 5.8 mph - N/A   Overcast
6:15 PM 78.8 °F - 71.6 °F 78% 30.10 in 7.0 mi SSE 4.6 mph - N/A   Overcast
6:35 PM 78.8 °F - 71.6 °F 78% 30.10 in 7.0 mi SSE 5.8 mph - N/A   Overcast
6:55 PM 78.8 °F - 71.6 °F 78% 30.11 in 7.0 mi SE 4.6 mph - N/A   Overcast
7:15 PM 78.8 °F - 71.6 °F 78% 30.11 in 7.0 mi SSE 4.6 mph - N/A Rain Light Rain
7:35 PM 78.8 °F - 71.6 °F 78% 30.11 in 10.0 mi SE 3.5 mph - N/A Rain Rain
7:55 PM 77.0 °F - 73.4 °F 89% 30.11 in 7.0 mi Calm Calm - N/A Rain Rain
8:15 PM 77.0 °F - 73.4 °F 89% 30.12 in 7.0 mi Calm Calm - N/A Rain Light Rain
8:35 PM 77.0 °F - 71.6 °F 83% 30.11 in 10.0 mi Calm Calm - N/A   Light Drizzle
8:55 PM 75.2 °F - 71.6 °F 89% 30.12 in 10.0 mi Calm Calm - N/A   Overcast
9:15 PM 77.0 °F - 71.6 °F 83% 30.12 in 10.0 mi Calm Calm - N/A   Mostly Cloudy
9:35 PM 77.0 °F - 71.6 °F 83% 30.13 in 10.0 mi Calm Calm - N/A   Mostly Cloudy
9:55 PM 77.0 °F - 73.4 °F 89% 30.14 in 10.0 mi SE 3.5 mph - N/A   Overcast
10:15 PM 77.0 °F - 73.4 °F 89% 30.14 in 10.0 mi SSE 3.5 mph - N/A Thunderstorm Drizzle
10:35 PM 77.0 °F - 73.4 °F 89% 30.14 in 10.0 mi Calm Calm - N/A Thunderstorm Unknown
10:55 PM 77.0 °F - 73.4 °F 89% 30.15 in 10.0 mi Calm Calm - N/A Thunderstorm Mostly Cloudy
11:15 PM 77.0 °F - 73.4 °F 89% 30.14 in 10.0 mi Calm Calm - N/A Thunderstorm Overcast
11:35 PM 77.0 °F - 73.4 °F 89% 30.16 in 10.0 mi Calm Calm - N/A Thunderstorm Thunderstorm
11:55 PM 71.6 °F - 68.0 °F 88% 30.16 in 10.0 mi NNW 6.9 mph - N/A Thunderstorm Overcast